Volver al catálogo

STARLINK-11150

ActivoComunicacionesVLEO
NORAD 60406·PAYLOAD·🇺🇸 United States

Lanzado Aug 10, 2024 desde Cape Canaveral Space Force Station

Loading…

Próximos Pases (próximas 24 horas)

TLE

ActualizadoSource: CelesTrak SupGP

Época: Sep 15, 2026, 03:23 UTC

1 60406C 24141J   26258.14145833 -.00080357  00000+0 -66162-3 0  2586
2 60406  53.1574 232.5140 0001298  91.8589 351.4715 15.69760692    18

Sigue STARLINK-11150 en tiempo real con AllMySat

Download on the App Store